Weather History for Brandon, MB

Change the Weather History Date:

Saturday, September 7, 2013

  Actual Average Record
Temperature  
Mean Temperature 66 °F -  
Max Temperature 76 °F 68 °F 84 °F (2011)
Min Temperature 57 °F 45 °F 37 °F (2004)
Cooling Degree Days 2    
Growing Degree Days 16 (Base 50)    
Moisture  
Dew Point 54 °F    
Average Humidity 64    
Maximum Humidity 88    
Minimum Humidity 35    
Precipitation  
Precipitation 0.00 in - - ()
Sea Level Pressure  
Sea Level Pressure 30.16 in    
Wind  
Wind Speed 10 mph ()    
Max Wind Speed 20 mph    
Max Gust Speed 25 mph    
Visibility 15.0 miles    
Events      
Averages and records for this station are not official NWS values.
T = Trace of Precipitation, MM = Missing Value Source: Averaged Metar Reports

Daily Weather History Graph

Daily Weather History Graph

Search for Another Location

Airport:

Trip Planner

Search our weather history database for the weather conditions in past years. The results will help you decide how hot, cold, wet, or windy it might be!

Date:

Astronomy

Sep. 07, 2013 Rise Set
Actual Time 7:04 AM CDT 8:10 PM CDT
Civil Twilight 6:31 AM CDT 8:42 PM CDT
Nautical Twilight 5:51 AM CDT 9:22 PM CDT
Astronomical Twilight 5:08 AM CDT 10:05 PM CDT
Moon 9:39 AM CDT (9/7) 8:48 PM CDT (9/7)
Length of Visible Light 14h 11m
Length of Day
13h 05m
Waxing Crescent, 5% of the Moon is Illuminated
Sep 7
Waxing Crescent
Sep 12
First Quarter
Sep 19
Full
Sep 26
Last Quarter
Oct 4
New

Hourly Weather History & Observations

Time (CDT) Temp. Dew Point Humidity Pressure Visibility Wind Dir Wind Speed Gust Speed Precip Events Conditions
12:00 AM 68.0 °F 55.4 °F 64% 30.04 in 15.0 mi NE 10.4 mph - N/A   Mostly Cloudy
1:00 AM 67 °F 54 °F 55% 30.06 in 15 mi NE 10.4 mph - -   Scattered Clouds
1:00 AM 66.2 °F 55.4 °F 68% 30.05 in 15.0 mi NE 10.4 mph - N/A   Scattered Clouds
2:00 AM 62.6 °F 53.6 °F 72% 30.07 in 15.0 mi ENE 3.5 mph - N/A   Partly Cloudy
3:00 AM 59.0 °F 53.6 °F 82% 30.09 in 15.0 mi NNE 6.9 mph - N/A   Clear
4:00 AM 59.0 °F 51.8 °F 77% 30.09 in 15.0 mi North 8.1 mph - N/A   Clear
5:00 AM 57.2 °F 51.8 °F 82% 30.11 in 15.0 mi North 6.9 mph - N/A   Clear
6:00 AM 57.2 °F 53.6 °F 88% 30.13 in 15.0 mi NNE 9.2 mph - N/A   Partly Cloudy
7:00 AM 58 °F 53 °F 80% 30.15 in 15 mi NNE 10.4 mph - -   Partly Cloudy
7:00 AM 59.0 °F 53.6 °F 82% 30.15 in 15.0 mi NNE 9.2 mph - N/A   Scattered Clouds
8:00 AM 60.8 °F 53.6 °F 77% 30.16 in 15.0 mi NNE 6.9 mph - N/A   Mostly Cloudy
9:00 AM 66.2 °F 55.4 °F 68% 30.17 in 15.0 mi NE 12.7 mph - N/A   Scattered Clouds
10:00 AM 69.8 °F 53.6 °F 56% 30.19 in 15.0 mi ENE 17.3 mph - N/A   Partly Cloudy
11:00 AM 71.6 °F 55.4 °F 57% 30.21 in 15.0 mi ENE 11.5 mph 18.4 mph N/A   Scattered Clouds
12:00 PM 71.6 °F 53.6 °F 53% 30.21 in 15.0 mi East 9.2 mph 19.6 mph N/A   Mostly Cloudy
1:00 PM 74 °F 52 °F 35% 30.21 in 15 mi East 15.0 mph - -   Scattered Clouds
1:00 PM 73.4 °F 51.8 °F 47% 30.21 in 15.0 mi East 18.4 mph - N/A   Mostly Cloudy
2:00 PM 75.2 °F 55.4 °F 50% 30.19 in 15.0 mi NE 19.6 mph - N/A   Mostly Cloudy
3:00 PM 73.4 °F 55.4 °F 53% 30.18 in 15.0 mi ENE 17.3 mph 25.3 mph N/A   Overcast
4:00 PM 75.2 °F 55.4 °F 50% 30.20 in 15.0 mi ENE 12.7 mph 23.0 mph N/A   Overcast
5:00 PM 71.6 °F 55.4 °F 57% 30.19 in 15.0 mi ENE 16.1 mph - N/A   Overcast
6:00 PM 69.8 °F 53.6 °F 56% 30.21 in 15.0 mi ENE 13.8 mph - N/A   Overcast
7:00 PM 68 °F 54 °F 52% 30.21 in 15 mi ENE 11.5 mph - -   Overcast
7:00 PM 68.0 °F 55.4 °F 64% 30.21 in 15.0 mi ENE 10.4 mph - N/A   Overcast
8:00 PM 64.4 °F 53.6 °F 68% 30.20 in 15.0 mi NE 10.4 mph - N/A   Overcast
9:00 PM 62.6 °F 53.6 °F 72% 30.20 in 15.0 mi ENE 11.5 mph - N/A   Mostly Cloudy
10:00 PM 60.8 °F 50.0 °F 68% 30.19 in 15.0 mi NE 9.2 mph 17.3 mph N/A   Mostly Cloudy
11:00 PM 59.0 °F 48.2 °F 67% 30.19 in 15.0 mi ENE 12.7 mph - N/A   Mostly Cloudy